Location: Dobrzeń Wielki
(50.7693°N, 17.8414°E)
Time: 21:07:59
(UTC+01:00)

Envisat - Pass Details

Date: 24 October 2019
Orbit: 764 x 766 km, 98.1° (Epoch: 13 November)

Event Time Altitude Azimuth Distance (km) Brightness Sun altitude
Rises 20:22:57 0° 219° (SW) 3,224 6.5 -26.4°
Reaches altitude 10° 20:26:29 10° 245° (WSW) 2,304 6.1 -27.0°
Maximum altitude 20:29:00 14° 275° (W) 2,060 6.1 -27.4°
Drops below altitude 10° 20:31:32 10° 305° (NW) 2,313 6.4 -27.7°
Sets 20:35:07 0° 331° (NNW) 3,245 6.9 -28.3°
